Flag for Germany Weather past 2 weeks in Springe, Lower Saxony, Germany

Now
32 °F

Chilly.


Feels Like: 22 °F
Forecast: 26 / 37 °F
Wind: 14 mph from Southwest

Location: Wunstorf Airport

Current Time: Dec 29, 2014 at 2:05:21 AM

Latest Report: Dec 29, 2014 at 1:20 AM


Visibility: 6 mi

Pressure: 30.30 "Hg

Humidity: 80%

Dew point: 27 °F

Location of SpringeLocation

Historic Weather in Springe — Graph

°F

Springe temperature yesterday

Maximum temperature yesterday: 30 °F (at 8:20 PM)
Minimum temperature yesterday: 19 °F (at 7:20 AM)
Average temperature yesterday: 25 °F

Past Weeks' High & Low Weather Summary

 TemperatureHumidityPressure
High54 °F (Dec 18, 5:20 PM)100% (Dec 14, 7:20 AM)30.42 "Hg (Dec 14, 7:20 AM)
Low19 °F (Dec 28, 7:20 AM)61% (Dec 25, 2:20 PM)29.53 "Hg (Dec 17, 2:20 PM)
Average41 °F87%29.94 "Hg
* Reported Dec 14 12:20 AM — Dec 29 12:20 AM, Springe, Weather by CustomWeather, © 2014

Note: Actual official high and low records may vary slightly from our data, if they occured in-between our weather recording intervals... More about our weather records

Advertising

Springe weather history for previous 24 hours

 ConditionsComfort  
Time TempWeatherWind HumidityBarometerVisibility
12:20 AM
Dec 29
30 °FChilly.12 mph86%30.33 "Hg6 mi
11:20 PM
Dec 28
30 °FChilly.12 mph86%30.36 "Hg5 mi
10:20 PM30 °FChilly.8 mph80%30.39 "Hg5 mi
9:20 PM27 °FChilly.6 mph93%30.39 "Hg5 mi
8:20 PM30 °FChilly.7 mph80%30.42 "Hg5 mi
7:20 PM28 °FChilly.7 mph86%30.42 "Hg5 mi
6:20 PM28 °FChilly.7 mph86%30.42 "Hg4 mi
5:20 PM25 °FCold.6 mph93%30.39 "Hg4 mi
4:20 PM27 °FChilly.7 mph86%30.36 "Hg4 mi
3:20 PM28 °FChilly.6 mph80%30.33 "Hg6 mi
2:20 PM27 °FChilly.5 mph86%30.33 "Hg5 mi
1:20 PM27 °FChilly.6 mph86%30.33 "Hg6 mi
12:20 PM27 °FChilly.3 mph80%30.30 "Hg6 mi
11:20 AM25 °FCold.6 mph80%30.30 "HgN/A
10:20 AM23 °FCold.2 mph86%30.27 "Hg5 mi
9:20 AM21 °FCold.2 mph86%30.24 "Hg4 mi
8:20 AM21 °FCold.3 mph86%30.18 "Hg5 mi
7:20 AM19 °FCold.5 mph93%30.15 "Hg5 mi
6:20 AM21 °FCold.8 mph86%30.12 "Hg5 mi
5:20 AM21 °FCold.9 mph93%30.07 "Hg6 mi
4:20 AM21 °FCold.8 mph93%30.04 "Hg6 mi
3:20 AM23 °FCold.9 mph86%30.01 "Hg6 mi
2:20 AM23 °FCold.9 mph86%29.98 "Hg6 mi
Weather by CustomWeather, © 2014

See weather overviewHow to use our weather pages